CCA57 ZKPY-ZSNJ

Flight info

Callsign CCA57
Flight time N/A
Altitude FL341
Route SAS21D SASRI W1 PONIL B332 SANKO A326 SURAK G455 MATNU W115 PINOT W11 PUD A599 NXD W131 AKDIM A470 DUBGO W134 ELNEX A599 PLT W19 OLPAB OLPAB9
Aircraft A21N/M-SDE1E2E3FGHIJ2J3J4J5M1RWXYZ/LB1D1

Departure

Time 2026-04-23 04:01
Airport Pyongyang Sunan International Airport (ZKPY)

Arrival

Time N/A
Airport Nanjing Lukou International Airport (ZSNJ)
Time Latitude Longitude Altitude Speed Heading
2026-04-23 03:46 39.20006 125.67585 96 ft 0 kts 74°
2026-04-23 03:51 39.20002 125.67564 98 ft 4 kts 82°
2026-04-23 03:51 39.20003 125.67530 95 ft 4 kts 108°
2026-04-23 03:52 39.20016 125.67502 99 ft 4 kts 141°
2026-04-23 03:52 39.20038 125.67487 97 ft 3 kts 162°
2026-04-23 03:52 39.20040 125.67486 98 ft 2 kts 163°
2026-04-23 03:56 39.20033 125.67489 98 ft 2 kts 163°
2026-04-23 03:57 39.20009 125.67498 97 ft 5 kts 163°
2026-04-23 03:57 39.19966 125.67515 97 ft 8 kts 163°
2026-04-23 03:57 39.19904 125.67539 98 ft 11 kts 162°
2026-04-23 03:57 39.19789 125.67587 99 ft 25 kts 161°
2026-04-23 03:58 39.19593 125.67667 98 ft 31 kts 163°
2026-04-23 03:58 39.19385 125.67747 96 ft 23 kts 162°
2026-04-23 03:58 39.19317 125.67774 98 ft 4 kts 162°
2026-04-23 03:58 39.19286 125.67787 96 ft 5 kts 162°
2026-04-23 03:59 39.19249 125.67802 98 ft 6 kts 162°
2026-04-23 03:59 39.19207 125.67819 98 ft 7 kts 162°
2026-04-23 03:59 39.19158 125.67836 96 ft 8 kts 177°
2026-04-23 03:59 39.19111 125.67799 97 ft 9 kts 238°
2026-04-23 04:00 39.19094 125.67719 97 ft 10 kts 275°
2026-04-23 04:00 39.19129 125.67639 99 ft 11 kts 312°
2026-04-23 04:00 39.19186 125.67570 98 ft 12 kts 334°
2026-04-23 04:00 39.19360 125.67494 97 ft 57 kts 343°
2026-04-23 04:01 39.19962 125.67254 98 ft 122 kts 344°
2026-04-23 04:01 39.20955 125.66864 100 ft 174 kts 343°
2026-04-23 04:01 39.22163 125.66379 455 ft 185 kts 345°
2026-04-23 04:01 39.23394 125.65889 1181 ft 186 kts 346°
2026-04-23 04:02 39.24596 125.65226 1946 ft 191 kts 328°
2026-04-23 04:02 39.25449 125.63922 2607 ft 195 kts 295°
2026-04-23 04:02 39.25686 125.62215 3263 ft 198 kts 264°
2026-04-23 04:02 39.25246 125.60456 3622 ft 217 kts 239°
2026-04-23 04:03 39.24424 125.58757 4085 ft 231 kts 237°
2026-04-23 04:03 39.23534 125.56916 4406 ft 254 kts 239°
2026-04-23 04:03 39.22587 125.54887 4769 ft 275 kts 239°
2026-04-23 04:03 39.21600 125.52744 5479 ft 279 kts 239°
2026-04-23 04:04 39.20368 125.50804 6236 ft 285 kts 220°
2026-04-23 04:04 39.18664 125.49471 6954 ft 289 kts 206°
2026-04-23 04:04 39.16836 125.48377 7698 ft 292 kts 205°
2026-04-23 04:04 39.14990 125.47271 8427 ft 295 kts 206°
2026-04-23 04:05 39.13124 125.46124 9154 ft 300 kts 206°
2026-04-23 04:05 39.11240 125.44945 9904 ft 303 kts 207°
2026-04-23 04:05 39.09326 125.43737 10404 ft 315 kts 207°
2026-04-23 04:05 39.07304 125.42460 10718 ft 333 kts 207°
2026-04-23 04:06 39.05251 125.40952 10994 ft 350 kts 217°
2026-04-23 04:06 39.03448 125.38775 11241 ft 365 kts 234°
2026-04-23 04:06 39.02152 125.35932 11487 ft 376 kts 251°
2026-04-23 04:06 39.01464 125.32653 11722 ft 388 kts 262°
2026-04-23 04:07 39.00982 125.29181 11959 ft 400 kts 263°
2026-04-23 04:07 39.00502 125.25634 12344 ft 406 kts 263°
2026-04-23 04:07 38.99996 125.22062 12852 ft 409 kts 262°
2026-04-23 04:07 38.99465 125.18472 13404 ft 411 kts 262°
2026-04-23 04:08 38.98920 125.14866 13909 ft 412 kts 262°
2026-04-23 04:08 38.98376 125.11263 14331 ft 413 kts 262°
2026-04-23 04:08 38.97827 125.07629 14788 ft 415 kts 262°
2026-04-23 04:08 38.97279 125.03989 15286 ft 416 kts 262°
2026-04-23 04:09 38.96731 125.00363 15760 ft 417 kts 262°